Theta_e
315 315 315 316 317 319 319 321 317 314 316 316 317 315 315 317 318 318 320 315 313 312 312 313 313 314 316 318 318 319 322 324 322 320 321 320 320 319 318 320 323 323 324 329 335
315 315 315 316 318 318 319 320 321 314 317 318 316 316 315 317 319 318 323 323 312 311 312 313 315 316 316 319 318 320 324 323 321 320 320 321 320 319 318 319 320 322 326 334 335
315 315 316 316 317 317 318 319 320 320 318 316 314 313 315 315 316 315 313 324 317 311 312 313 314 316 317 317 318 320 323 321 318 317 319 320 319 319 319 319 319 320 324 334 335
315 315 316 316 316 317 318 318 319 319 319 317 317 312 315 316 317 313 314 315 312 311 313 313 314 316 318 318 318 318 317 318 316 316 318 319 318 318 319 318 317 318 321 330 334
315 315 316 316 316 317 318 318 318 318 318 316 318 317 316 316 315 314 317 313 314 313 312 313 314 315 316 318 317 318 316 316 315 315 317 317 318 318 318 317 315 315 320 327 331
315 315 315 315 316 317 317 318 318 317 316 315 315 315 317 313 311 311 314 313 314 313 311 313 314 315 315 317 316 317 317 316 315 315 314 317 316 315 315 314 314 314 319 323 328
315 315 314 315 316 317 317 317 316 315 314 313 313 315 314 311 312 312 313 313 312 312 313 312 313 314 315 315 313 316 316 315 315 315 315 314 315 315 313 312 314 314 317 320 324
316 315 314 315 316 316 316 316 313 313 312 311 311 315 312 311 312 310 310 311 311 311 312 311 311 314 315 313 313 315 316 317 314 314 314 313 317 315 312 312 313 314 315 317 321
316 314 314 315 315 316 316 315 312 312 311 311 315 314 310 311 311 310 310 311 310 310 311 310 313 314 313 315 315 315 316 316 313 314 315 313 316 312 313 313 313 314 314 314 315
315 314 313 315 315 315 315 313 312 312 315 314 311 313 310 313 312 310 310 311 311 312 312 313 314 314 315 315 316 315 315 314 315 313 313 314 314 314 313 314 315 315 315 315 314
315 313 314 314 314 314 313 314 314 314 312 309 310 310 310 311 310 311 310 311 312 313 313 314 314 314 313 314 315 315 314 313 313 313 314 315 314 314 314 314 315 315 315 314 313
314 313 314 313 313 313 313 311 310 310 312 311 310 310 312 311 311 311 310 312 312 313 313 313 314 314 314 311 312 313 313 313 313 312 314 315 314 314 313 313 312 313 313 312 312
314 314 313 313 311 313 315 311 309 309 309 311 309 311 312 312 312 312 311 313 312 312 313 312 313 312 312 311 312 312 312 313 313 312 312 313 313 314 310 311 312 312 311 312 313
314 313 313 311 312 313 314 311 311 309 308 310 312 311 312 311 313 311 310 312 312 312 312 312 309 311 312 312 312 312 312 313 314 313 312 312 312 314 312 313 314 314 314 313 313
314 313 312 311 311 313 312 314 314 311 312 311 313 309 310 311 311 311 309 311 312 312 311 311 310 311 312 312 312 312 312 314 314 315 313 313 312 314 311 314 314 314 314 313 313
313 312 311 313 314 313 314 313 314 313 316 314 312 311 312 311 312 310 311 310 311 311 311 311 308 311 311 310 311 311 313 313 314 315 312 313 312 313 311 313 315 314 313 312 312
311 312 312 313 315 313 314 316 318 322 312 316 313 312 311 312 312 312 311 311 311 311 311 312 310 310 310 311 311 312 312 313 312 314 312 309 312 312 310 314 315 314 313 312 312
308 312 313 313 315 314 314 317 320 313 311 314 313 312 312 311 312 312 312 311 311 311 311 311 312 311 311 312 312 313 313 315 316 315 313 308 312 312 311 313 314 313 312 312 312
305 311 313 313 315 314 316 318 316 312 312 315 313 312 312 312 312 313 313 313 312 312 311 311 313 311 310 310 312 312 312 312 312 309 315 312 311 310 309 312 313 312 312 313 312
303 308 305 310 314 315 317 316 312 311 314 313 312 312 313 312 313 312 313 312 313 311 310 311 313 311 309 310 310 311 311 310 312 321 320 311 312 312 310 313 312 312 313 313 311
302 309 301 306 311 316 317 314 312 312 314 313 313 312 313 312 311 312 313 312 312 311 309 310 314 312 310 311 312 310 310 310 311 314 320 315 312 311 312 313 313 313 314 312 311
300 305 301 305 314 314 315 312 312 314 314 315 315 314 312 312 312 313 313 311 312 311 310 312 313 314 312 310 309 311 311 311 313 314 311 315 315 311 312 312 314 313 313 312 311
300 299 299 302 313 314 313 313 312 315 315 316 316 315 313 312 312 312 312 312 309 310 311 312 317 319 313 312 310 311 310 311 311 317 320 319 312 310 310 312 314 313 312 311 310
301 305 300 298 299 311 314 314 314 315 315 316 316 314 314 313 314 312 314 314 312 310 310 311 315 314 313 312 312 312 312 311 311 313 313 313 312 311 313 314 313 312 312 311 309
300 301 300 307 305 305 309 313 315 315 316 316 316 316 316 316 315 315 315 314 312 312 311 312 317 312 311 313 313 313 312 311 311 311 311 312 310 312 312 313 313 312 312 310 309
300 299 298 300 303 305 305 308 315 314 316 317 318 317 316 316 316 317 315 315 315 313 312 312 319 314 316 314 313 313 313 311 311 311 311 311 311 311 312 312 312 312 311 310 308
297 297 300 299 303 305 307 308 308 310 314 314 315 317 317 316 315 316 314 315 315 314 314 314 315 318 318 315 316 317 314 313 311 311 312 311 311 311 312 312 312 311 311 310 307
Wind_Speed
24 22 22 22 22 20 19 19 19 18 17 14 15 21 20 15 10 13 12 12 2 8 11 6 5 3 5 3 2 4 6 7 8 8 9 12 9 3 3 6 3 3 6 7 19
25 22 23 23 23 21 21 21 22 21 17 15 13 18 16 8 6 17 27 30 14 12 9 9 9 10 6 2 4 5 6 9 4 3 11 14 9 10 7 8 6 7 8 14 18
25 23 23 24 22 23 21 22 22 23 21 18 15 13 11 7 1 7 22 37 24 14 14 11 7 11 12 6 6 6 9 6 4 4 8 12 7 7 6 7 7 10 11 15 17
26 24 24 23 22 22 22 21 22 22 25 24 19 16 11 10 6 9 21 28 24 17 13 11 9 9 10 10 8 8 2 2 4 3 5 11 9 7 6 7 7 5 14 15 16
28 27 24 24 23 23 22 22 22 23 23 24 22 18 14 8 8 5 15 20 19 15 18 15 14 13 9 8 8 7 7 5 7 5 5 5 6 3 6 8 7 7 7 12 13
29 27 23 22 22 22 22 21 22 22 20 20 20 21 9 14 7 8 8 14 15 19 19 21 11 15 8 6 12 5 8 9 6 7 4 5 3 1 3 3 5 6 8 10 12
30 28 26 25 24 21 22 22 21 20 19 19 20 21 10 11 2 10 12 14 14 19 17 20 4 12 7 8 2 12 7 6 6 5 3 1 3 7 7 3 5 8 8 8 11
31 30 27 26 24 21 21 20 20 18 18 19 20 13 8 10 8 10 12 10 10 14 14 11 7 6 4 9 7 7 8 8 6 6 3 3 5 8 2 7 8 7 8 7 8
32 31 30 26 23 22 20 19 18 17 16 17 11 7 6 6 7 13 14 10 12 8 6 8 5 5 6 13 8 8 10 14 6 5 4 7 5 6 2 4 7 7 6 6 8
35 33 30 27 25 23 21 18 17 16 12 10 2 5 7 5 9 13 11 13 7 11 9 8 7 9 11 15 18 13 15 9 12 8 6 8 10 5 6 3 6 5 5 6 6
35 33 30 27 26 26 27 20 10 6 13 6 8 5 6 7 11 11 10 12 9 14 12 14 11 18 18 16 11 16 14 10 8 3 6 12 10 9 6 5 7 6 3 3 3
38 34 32 29 28 29 28 10 19 8 9 5 6 4 2 3 5 10 12 12 12 17 15 7 17 17 16 8 6 10 14 9 5 3 4 5 11 10 3 4 1 4 5 2 2
37 36 33 28 27 25 22 20 13 19 7 5 3 5 3 3 4 15 13 5 16 19 15 16 13 10 8 10 12 10 14 12 4 6 1 2 8 12 4 4 3 2 2 2 2
39 37 32 29 19 24 21 16 11 7 6 8 5 5 4 2 4 2 7 5 9 19 17 10 5 11 13 16 14 9 2 10 11 11 5 3 4 8 8 6 4 5 4 5 7
39 34 34 34 15 22 15 14 10 3 7 12 6 3 2 5 9 6 1 3 12 13 9 6 9 13 15 16 10 4 9 9 9 5 1 6 5 5 8 8 6 6 7 6 7
33 34 36 20 15 20 16 15 6 5 8 8 8 9 9 5 4 6 5 2 3 6 4 5 2 7 3 7 1 16 12 11 6 3 5 10 8 8 8 11 11 9 9 9 8
20 33 39 20 10 19 21 7 6 6 10 10 8 11 19 8 7 12 17 12 10 10 12 4 7 2 6 10 8 10 15 5 6 5 5 3 4 4 7 6 12 15 13 10 10
13 28 29 14 10 23 16 9 8 14 15 5 8 15 15 13 6 10 17 17 11 10 14 13 7 11 10 9 9 14 16 6 7 6 6 3 7 2 8 6 13 13 14 11 9
3 17 19 11 15 20 10 14 11 16 11 12 15 16 13 7 6 10 19 21 18 13 10 14 7 3 3 1 11 12 8 4 6 1 2 6 5 4 8 11 14 14 13 12 11
3 7 5 12 17 12 12 13 15 3 14 16 13 16 23 18 12 16 18 16 14 12 3 7 5 1 2 3 1 8 12 4 3 6 4 7 8 7 15 18 17 17 16 14 11
4 4 4 5 12 6 16 17 13 5 11 15 11 15 19 19 18 15 16 6 22 13 4 8 4 4 4 9 13 4 6 5 4 3 4 4 5 3 20 22 22 19 17 15 13
2 3 7 6 7 9 14 20 6 9 5 5 7 4 16 17 12 12 14 11 16 14 13 2 5 5 7 4 2 5 10 13 5 5 2 2 3 4 8 20 19 18 15 15 13
2 2 9 2 10 9 11 21 11 8 9 6 8 3 2 13 9 11 7 3 2 10 15 9 5 5 1 2 2 7 9 12 8 3 5 5 5 4 5 15 17 18 16 14 13
2 2 1 3 1 9 10 19 15 5 7 4 4 3 8 6 3 12 9 2 2 1 4 4 3 9 12 10 9 10 17 15 15 6 10 9 9 6 11 16 17 17 18 17 15
2 2 2 3 1 2 3 7 18 12 6 8 2 8 9 5 8 7 7 5 2 3 3 3 6 8 14 2 3 8 14 15 16 23 13 21 16 11 18 20 22 18 16 16 15
3 2 0 2 1 4 4 4 25 21 15 9 8 14 11 7 12 11 11 7 6 4 8 3 3 6 2 2 0 2 8 17 20 23 20 19 15 8 17 15 17 18 19 19 18
2 1 1 4 3 2 1 2 2 7 12 6 9 6 10 2 2 5 8 8 8 11 11 9 6 4 4 5 3 4 16 16 15 20 19 21 24 8 14 19 20 20 20 19 18
Wind_Direction
204 206 206 210 208 207 204 203 188 178 170 179 181 180 161 164 187 223 215 219 269 321 287 262 214 199 206 195 218 284 211 213 183 197 144 157 163 170 90 135 124 102 42 94 145
197 203 206 202 203 205 203 199 197 195 195 190 175 170 167 169 208 237 220 223 247 279 233 209 207 190 195 216 205 235 223 205 158 109 157 169 186 154 168 147 155 145 112 130 151
198 197 199 198 200 200 204 201 200 199 204 192 190 182 156 168 39 242 203 219 237 260 241 235 218 212 207 194 210 204 211 114 136 82 143 161 165 157 168 177 158 178 156 159 168
193 198 198 198 198 196 203 199 201 204 207 210 203 194 186 170 169 199 202 219 232 226 229 213 190 195 214 201 195 182 94 116 125 104 160 167 142 170 199 85 76 109 156 169 181
193 197 193 194 198 196 200 197 195 196 202 203 201 186 163 204 243 89 202 223 187 191 212 207 188 200 221 198 191 212 137 106 112 130 159 119 174 98 187 127 118 107 165 177 191
193 193 191 195 196 196 196 199 192 190 194 197 197 188 219 218 241 218 196 178 173 189 210 220 197 197 242 201 200 139 138 122 134 131 114 181 148 266 100 139 197 165 170 187 200
193 190 188 196 193 193 192 195 182 185 186 187 184 183 232 222 193 182 207 188 191 194 210 209 244 186 190 157 135 146 115 141 155 134 117 280 210 215 126 149 156 201 182 188 195
190 189 185 193 188 189 189 187 173 172 175 177 176 202 239 222 228 191 195 185 196 202 233 208 187 175 264 121 130 160 174 181 151 176 129 225 239 134 163 203 203 179 191 187 199
191 189 184 187 181 185 179 174 162 160 165 165 158 221 230 160 172 190 192 186 167 187 179 146 160 180 155 178 166 196 198 211 147 204 142 214 245 122 144 188 185 182 173 190 201
191 186 181 181 181 178 168 155 145 135 147 157 256 209 192 207 164 168 180 180 161 161 150 176 187 185 207 199 201 183 216 202 203 177 202 196 235 144 160 190 184 174 176 184 191
189 185 178 177 184 174 154 134 142 158 189 173 185 234 161 114 138 164 166 170 159 184 182 194 197 202 197 212 233 196 206 198 188 119 211 220 240 213 175 225 217 228 219 227 203
188 180 176 179 182 172 167 186 174 152 176 231 286 184 125 190 144 152 170 176 184 187 189 175 213 203 203 165 173 176 193 188 97 139 206 206 241 233 171 228 246 274 254 242 185
184 177 172 177 174 171 192 204 167 163 158 171 183 191 164 202 168 166 188 201 188 190 193 199 198 128 143 170 173 189 194 179 177 147 169 241 243 187 169 154 160 138 220 196 142
180 173 168 168 157 180 201 202 192 213 154 166 194 191 135 194 159 114 197 189 196 193 196 230 135 176 189 193 195 185 166 147 141 172 205 208 242 180 168 188 170 141 153 137 130
174 171 169 162 165 180 188 188 181 266 196 154 148 140 129 185 124 178 170 166 174 168 191 159 158 177 191 192 201 144 150 138 153 185 218 193 249 142 167 198 180 146 123 127 106
173 171 165 170 157 181 167 168 171 197 220 165 142 166 153 165 142 127 162 85 60 151 144 101 353 196 146 82 192 138 118 98 113 173 238 214 228 207 176 203 164 145 134 132 119
138 168 167 172 165 179 165 169 165 209 140 168 180 174 177 165 153 185 185 172 168 161 185 124 155 125 158 100 138 169 157 150 195 196 233 54 216 242 126 166 175 156 145 142 132
125 171 171 176 159 167 172 183 206 189 186 137 164 160 181 155 179 182 186 194 217 229 173 181 200 180 176 204 175 192 186 170 188 195 188 87 229 217 124 156 144 143 142 137 129
84 142 155 164 160 168 179 196 198 185 157 149 146 170 183 186 140 169 199 200 195 204 176 191 159 116 179 114 169 179 201 72 105 18 161 185 226 181 164 161 154 153 155 150 141
18 122 73 161 179 179 197 205 198 181 142 158 172 187 192 183 164 189 187 209 199 198 324 205 132 200 108 142 115 215 146 154 216 162 215 188 240 241 185 178 172 169 169 157 147
353 121 34 159 157 183 204 194 196 161 171 174 176 184 195 184 199 191 188 199 193 181 202 169 106 136 174 206 181 162 186 212 225 235 214 187 236 337 190 184 179 176 171 163 161
60 142 356 155 177 200 207 193 166 163 204 204 174 143 186 180 192 198 207 208 196 168 178 154 106 149 188 74 11 262 217 196 202 193 290 44 255 333 208 185 179 173 164 167 164
58 32 332 4 193 195 198 211 204 170 189 183 193 151 147 171 182 200 188 62 98 185 182 178 151 105 80 251 178 217 201 220 220 60 193 186 232 329 215 171 173 167 168 165 160
147 177 39 24 33 214 185 204 196 215 199 180 145 125 133 172 186 190 163 143 160 202 359 123 127 198 206 211 154 200 202 199 205 201 213 225 218 163 175 172 174 172 174 170 169
19 80 9 137 229 110 160 213 198 185 208 185 187 214 168 147 171 181 158 138 131 178 152 148 206 211 232 32 244 203 198 192 204 221 211 236 232 205 187 184 190 179 172 170 170
134 150 135 65 115 168 151 202 213 199 167 201 229 197 210 179 191 177 160 169 170 164 178 169 204 213 48 108 180 238 223 193 209 227 233 248 252 278 180 191 181 181 177 179 176
128 59 279 137 169 148 140 118 191 270 207 236 210 193 210 225 70 165 153 154 160 159 181 166 143 140 209 120 85 284 226 201 214 223 220 232 238 153 179 188 186 186 186 180 174